Wind_Speed
99 105 106 99 93 84 80 80 81 76 75 81 83 90 90 92 98 103 104 102 107 107 105 96 89 79 68 64 64 62 61 58 61 66 69 71 73 74
110 109 99 94 91 84 81 83 86 84 78 83 84 91 93 92 97 104 107 109 111 109 107 97 87 75 67 66 63 59 59 61 63 67 69 73 74 78
112 103 92 88 85 83 85 87 87 92 93 84 90 95 97 99 99 104 109 113 113 110 108 98 88 74 65 63 62 57 60 64 66 68 70 76 76 81
107 91 81 79 81 84 86 87 90 95 100 97 96 102 102 105 108 110 113 111 111 105 100 94 84 73 65 62 60 58 61 67 70 72 74 78 81 87
89 92 93 94 89 88 90 91 93 95 100 103 102 104 105 106 113 116 118 111 109 100 93 88 79 73 66 62 65 64 62 67 72 74 77 79 85 92
103 102 102 105 102 103 103 105 105 104 103 106 107 109 112 113 114 118 114 111 105 94 84 80 76 72 66 64 68 73 70 70 75 77 82 83 90 94
115 113 114 115 115 115 114 113 112 113 113 112 112 114 115 112 106 112 106 105 98 81 75 73 72 72 70 66 71 72 71 72 76 81 82 88 92 98
123 123 122 120 122 122 122 118 116 116 115 115 110 107 104 103 99 97 96 91 90 75 69 69 70 70 69 70 73 71 71 75 78 81 87 89 96 98
120 120 120 120 118 115 112 110 109 109 106 102 95 89 92 94 94 91 91 83 73 68 66 64 67 68 72 71 73 69 71 77 80 87 88 91 98 101
111 110 108 104 104 104 100 100 102 101 97 94 88 86 82 83 79 78 77 74 72 61 62 63 64 68 68 72 72 72 73 78 85 87 88 95 101 100
115 116 114 108 105 101 93 86 85 83 85 83 81 77 72 66 67 65 65 64 64 62 68 65 63 67 69 74 70 69 76 83 86 87 92 99 97 102
105 105 101 93 91 89 83 78 72 73 74 73 68 61 58 60 61 56 55 55 58 57 63 63 64 67 69 71 72 75 79 85 85 89 98 98 99 96
88 89 87 83 80 75 75 67 62 60 60 56 56 50 51 53 51 48 47 51 50 58 61 61 57 68 70 68 72 79 83 84 88 93 98 97 92 94
82 78 77 75 70 69 66 61 55 55 55 52 50 46 47 46 45 45 46 49 51 55 58 54 59 70 68 71 78 81 83 88 92 95 93 89 91 88
71 69 68 65 63 64 62 58 54 51 50 49 47 48 47 43 43 44 45 48 52 55 58 61 64 65 67 75 79 82 88 91 92 88 89 90 86 87
65 62 61 60 59 59 59 56 52 48 44 43 43 43 39 40 41 44 46 50 51 57 56 55 57 65 70 75 79 84 88 87 84 85 89 83 83 83
62 57 54 51 50 48 48 46 43 42 40 36 35 35 38 38 42 45 48 49 52 56 59 60 64 68 71 74 81 81 80 80 82 81 81 82 81 76
57 53 51 48 46 44 44 40 38 37 34 32 33 34 35 37 43 44 54 53 55 58 60 61 65 68 70 75 71 73 78 81 77 76 75 79 75 66
46 44 42 38 38 39 38 34 33 32 31 32 31 31 33 37 42 49 53 46 53 58 60 62 65 64 63 62 66 73 77 76 73 72 72 70 63 53
48 45 42 38 35 33 32 31 31 31 30 29 29 31 34 37 42 49 48 44 42 44 49 50 53 55 59 65 69 68 72 72 73 70 63 55 47 43
42 40 38 33 30 28 27 29 30 28 27 28 28 30 35 37 40 43 32 27 32 36 40 47 50 56 64 66 68 70 65 66 62 60 52 45 38 37
36 34 32 27 24 23 23 24 23 24 25 27 27 29 33 34 30 22 27 34 36 39 44 48 55 59 59 65 65 69 64 54 49 46 43 38 33 28
29 27 24 23 22 20 20 20 21 23 24 25 26 29 30 20 17 25 26 30 37 42 48 56 58 59 62 63 63 59 50 45 42 39 34 31 28 21
Wind_Direction
297 297 299 298 299 296 290 284 282 282 284 287 291 294 299 303 306 307 309 311 310 311 311 311 308 304 291 287 284 285 289 291 291 294 295 295 299 302
295 294 295 297 295 293 289 287 286 286 285 287 291 293 297 300 302 304 307 309 309 309 308 307 305 299 289 286 286 288 289 291 294 294 297 302 300 306
293 295 291 290 289 291 291 289 289 289 290 292 293 294 298 300 301 302 304 306 307 307 306 304 303 295 287 284 285 287 291 293 296 298 301 304 304 305
292 291 286 287 290 288 288 288 288 289 291 294 294 295 298 299 300 301 302 304 303 304 302 300 298 291 284 282 283 286 292 292 296 300 303 304 304 306
285 287 288 288 287 284 284 285 287 288 289 290 292 293 295 297 297 298 299 298 299 300 297 295 292 286 283 279 281 283 285 292 296 301 304 303 304 308
285 284 285 287 285 285 286 286 287 286 285 287 290 292 293 293 293 294 295 297 296 296 292 289 285 283 282 280 281 285 288 291 296 299 301 303 305 308
290 288 287 286 286 286 285 284 284 284 284 285 287 287 288 289 290 291 294 293 292 292 286 280 278 280 281 280 282 288 290 294 297 299 301 304 306 309
286 285 286 285 285 285 286 287 287 287 287 288 289 286 286 286 286 287 287 290 291 285 280 274 275 279 280 280 281 286 290 293 297 300 301 305 308 314
290 287 285 286 287 288 288 288 288 288 287 286 286 287 285 285 283 281 284 285 282 275 273 270 273 276 277 279 282 286 289 294 297 299 304 306 311 312
292 291 289 288 288 288 287 287 286 285 284 283 285 286 286 284 279 278 278 276 276 267 267 267 270 273 274 277 281 286 292 293 295 300 303 308 309 311
292 290 290 291 290 289 287 286 286 285 284 285 285 285 283 277 275 275 275 273 264 249 257 261 265 271 275 280 285 290 289 291 296 301 305 305 309 310
291 289 289 290 289 289 288 287 287 283 283 283 282 279 276 276 277 276 268 260 256 258 255 261 265 269 274 278 285 287 290 292 297 302 303 308 307 308
292 291 291 289 289 287 288 287 284 284 283 279 278 275 274 275 274 267 259 255 253 247 253 258 263 269 273 280 285 286 289 292 297 302 304 305 307 310
292 291 290 288 288 288 287 285 282 281 277 275 274 269 271 270 264 257 257 252 247 249 251 255 262 269 275 279 282 286 289 295 299 301 302 305 309 310
291 290 289 288 287 286 284 282 281 277 273 269 266 265 268 262 257 255 250 247 244 247 250 255 259 273 278 280 284 287 290 294 298 300 303 306 309 311
291 288 288 287 286 282 280 279 275 273 270 263 259 260 260 259 253 247 243 245 245 250 256 264 267 268 275 280 284 289 293 296 298 302 305 307 309 309
290 288 287 284 283 283 281 276 268 265 264 256 254 256 256 248 240 239 241 245 246 247 255 261 265 272 278 282 288 292 295 300 304 305 307 309 308 308
289 287 285 283 281 280 276 269 258 257 254 252 255 253 244 238 234 238 245 243 250 256 260 266 270 277 283 284 290 296 301 303 306 309 311 308 304 306
287 285 283 282 277 274 268 257 252 250 248 253 251 239 234 235 230 241 252 256 255 258 264 271 278 283 285 291 297 300 304 307 311 310 307 303 302 307
280 279 279 277 274 269 260 250 245 247 251 248 236 233 234 232 233 241 258 267 271 271 272 278 282 287 296 298 301 305 310 312 311 307 302 303 307 308
276 274 272 271 267 262 253 245 245 246 239 232 228 226 226 228 233 245 264 267 274 280 284 287 295 300 300 302 309 315 312 310 306 301 304 307 310 306
271 268 264 260 257 254 244 237 236 233 230 231 232 226 222 229 248 259 266 270 279 284 291 298 300 301 307 314 317 316 312 307 305 305 308 310 312 302
266 260 253 246 241 235 225 221 222 219 217 215 214 216 230 241 244 253 263 274 285 290 293 300 305 311 317 319 318 312 312 314 317 314 313 309 306 305
Height
10582 10574 10563 10553 10544 10537 10531 10525 10523 10530 10531 10517 10509 10492 10483 10475 10463 10451 10445 10443 10429 10421 10410 10400 10392 10384 10377 10373 10369 10367 10364 10361 10357 10352 10345 10339 10331 10323
10560 10553 10544 10532 10522 10512 10505 10501 10496 10493 10503 10495 10489 10475 10466 10461 10448 10434 10424 10416 10405 10397 10388 10382 10374 10367 10359 10355 10352 10348 10346 10342 10339 10333 10325 10317 10309 10301
10535 10527 10519 10509 10502 10494 10483 10477 10474 10465 10458 10478 10463 10451 10441 10435 10430 10418 10406 10395 10384 10375 10364 10356 10353 10347 10341 10336 10333 10330 10327 10324 10319 10312 10304 10296 10288 10281
10510 10500 10494 10485 10478 10472 10465 10460 10453 10444 10430 10435 10439 10426 10418 10410 10399 10393 10384 10376 10364 10354 10343 10335 10331 10326 10324 10318 10315 10312 10309 10305 10300 10293 10285 10277 10268 10260
10476 10472 10467 10459 10454 10448 10443 10439 10433 10427 10417 10407 10412 10402 10395 10390 10376 10368 10357 10353 10345 10334 10324 10315 10311 10309 10306 10301 10296 10293 10291 10288 10281 10273 10265 10257 10249 10239
10444 10435 10432 10426 10422 10416 10412 10408 10402 10399 10396 10388 10384 10376 10365 10363 10353 10342 10334 10327 10322 10313 10303 10296 10292 10290 10288 10284 10277 10273 10273 10268 10260 10252 10245 10238 10228 10216
10407 10402 10397 10389 10384 10378 10374 10372 10367 10362 10358 10358 10357 10348 10342 10332 10327 10312 10308 10300 10296 10291 10284 10279 10275 10272 10271 10267 10260 10256 10255 10249 10241 10234 10226 10218 10207 10195
10373 10365 10355 10350 10343 10339 10334 10332 10329 10326 10322 10319 10320 10316 10310 10305 10301 10292 10284 10280 10271 10271 10264 10261 10260 10258 10254 10249 10244 10241 10239 10231 10223 10214 10208 10199 10187 10175
10331 10327 10324 10317 10309 10308 10304 10298 10293 10289 10286 10286 10286 10282 10280 10271 10269 10267 10261 10258 10253 10252 10246 10245 10244 10242 10236 10232 10228 10227 10222 10214 10205 10197 10188 10178 10167 10154
10292 10287 10285 10286 10276 10274 10274 10273 10264 10259 10251 10247 10253 10255 10248 10241 10238 10238 10235 10233 10233 10232 10228 10228 10227 10224 10219 10214 10212 10210 10203 10195 10187 10179 10170 10159 10147 10134
10258 10247 10243 10245 10240 10234 10239 10240 10238 10229 10219 10221 10221 10222 10220 10213 10213 10215 10215 10212 10211 10210 10209 10211 10210 10206 10200 10195 10196 10193 10187 10178 10170 10162 10151 10139 10128 10114
10226 10214 10210 10210 10208 10202 10202 10206 10209 10198 10195 10193 10193 10195 10193 10191 10192 10193 10193 10193 10192 10194 10197 10196 10194 10189 10185 10183 10181 10176 10167 10159 10152 10143 10132 10120 10110 10095
10195 10184 10179 10176 10176 10174 10172 10177 10179 10176 10173 10172 10172 10174 10173 10172 10172 10173 10173 10175 10177 10181 10182 10181 10178 10170 10170 10171 10166 10158 10150 10143 10135 10124 10113 10102 10090 10077
10166 10159 10155 10150 10150 10149 10148 10150 10156 10157 10154 10153 10154 10156 10157 10156 10156 10157 10158 10160 10162 10165 10166 10165 10162 10156 10158 10156 10148 10141 10133 10125 10115 10105 10094 10082 10071 10058
10138 10135 10131 10128 10129 10127 10126 10129 10133 10134 10134 10134 10137 10139 10140 10141 10142 10143 10145 10147 10150 10151 10150 10151 10151 10149 10144 10136 10130 10125 10116 10107 10098 10086 10073 10063 10053 10039
10114 10112 10111 10109 10108 10107 10106 10110 10113 10115 10115 10117 10120 10123 10126 10129 10129 10130 10133 10135 10137 10136 10138 10140 10138 10132 10126 10120 10115 10108 10096 10089 10078 10069 10054 10043 10034 10019
10090 10091 10090 10091 10090 10090 10090 10092 10096 10098 10101 10104 10107 10111 10114 10116 10117 10119 10121 10122 10123 10123 10123 10124 10122 10119 10113 10105 10099 10088 10077 10068 10058 10048 10036 10019 10010 9997
10071 10072 10073 10074 10075 10075 10075 10078 10081 10085 10089 10093 10097 10100 10102 10106 10108 10108 10108 10110 10112 10114 10114 10113 10108 10104 10100 10091 10081 10071 10060 10047 10037 10027 10016 9999 9986 9979
10057 10057 10058 10060 10061 10061 10061 10065 10068 10073 10078 10082 10084 10088 10092 10096 10099 10098 10097 10105 10106 10105 10104 10101 10095 10090 10082 10076 10067 10053 10039 10029 10016 10004 9993 9979 9967 9962
10044 10044 10045 10047 10048 10049 10051 10054 10058 10063 10067 10071 10075 10080 10084 10088 10089 10090 10092 10096 10099 10097 10093 10088 10082 10074 10066 10056 10048 10041 10024 10007 9994 9977 9966 9959 9953 9944
10029 10030 10033 10035 10038 10039 10042 10046 10050 10055 10058 10063 10067 10073 10077 10080 10083 10085 10091 10091 10088 10085 10081 10074 10068 10059 10049 10038 10026 10015 10006 9993 9975 9958 9949 9943 9938 9932
10015 10018 10021 10025 10028 10030 10033 10037 10042 10047 10052 10058 10064 10068 10071 10074 10080 10084 10083 10082 10079 10074 10069 10062 10054 10044 10035 10024 10009 9993 9976 9967 9957 9944 9936 9929 9925 9922
10003 10007 10012 10016 10020 10023 10027 10032 10037 10043 10049 10055 10060 10064 10068 10076 10077 10078 10077 10074 10070 10064 10058 10049 10039 10031 10020 10005 9989 9973 9960 9948 9940 9932 9925 9920 9916 9912